Tracking 23731 objects as of 26-Sep-2021
HD Live streaming from Space Station
objects crossing your sky now

INTELSAT 801

Track INTELSAT 801 now!
INTELSAT 801 is classified as:


NORAD ID: 24742
Int'l Code: 1997-009A
Perigee: 36,186.3 km
Apogee: 36,272.5 km
Inclination: 9.4 °
Period: 1,458.4 minutes
Semi major axis: 42600 km
RCS: 1.061 m2 (large)
Launch date: March 1, 1997
Source: International Telecommunications Satellite Organization (ITSO)
Launch site: FRENCH GUIANA (FRGUI)

64 C-band, 16 Ku-band; broadcasting, business services, direct-to-home TV broadcasting, telecommunications, VSAT networks; Atlantic Ocean region.
aabbcc
Your satellite tracking list
Your tracking list is empty




NASA's NSSDC Master Catalog

Two Line Element Set (TLE):
1 24742U 97009A   21269.15321150 -.00000189  00000-0  00000+0 0  9990
2 24742   9.3698  44.5165 0010123 347.5575 208.0283  0.98737651 89594
Source of the keplerian elements: AFSPC